Weather History for KGLW - July, 2013

Change the Weather History Date:

Sunday, July 28, 2013

  Actual Average Record
Temperature  
Mean Temperature 64 °F -  
Max Temperature 76 °F 87 °F 96 °F (1966)
Min Temperature 53 °F 66 °F 53 °F (1962)
Growing Degree Days 14 (Base 50)    
Moisture  
Dew Point 52 °F    
Average Humidity 64    
Maximum Humidity 100    
Minimum Humidity 39    
Precipitation  
Precipitation 0.00 in - - ()
Sea Level Pressure  
Sea Level Pressure 30.05 in    
Wind  
Wind Speed 3 mph (NW)    
Max Wind Speed 10 mph    
Max Gust Speed 18 mph    
Visibility 10 miles    
Events      
Averages and records for this station are not official NWS values.
T = Trace of Precipitation, MM = Missing Value Source: NWS Daily Summary

Daily Weather History Graph

Daily Weather History Graph

Search for Another Location

Airport or City:

Trip Planner

Search our weather history database for the weather conditions in past years. The results will help you decide how hot, cold, wet, or windy it might be!

Date:

Astronomy

Jul. 28, 2013 Rise Set
Actual Time 5:45 AM CDT 7:54 PM CDT
Civil Twilight 5:16 AM CDT 8:23 PM CDT
Nautical Twilight 4:41 AM CDT 8:58 PM CDT
Astronomical Twilight 4:02 AM CDT 9:36 PM CDT
Moon 11:27 PM CDT 12:16 PM CDT
Length of Visible Light 15h 06m
Length of Day
14h 08m
Waning Gibbous, 60% of the Moon is Illuminated
Jul 28
Waning Gibbous
Jul 29
Last Quarter
Aug 6
New
Aug 14
First Quarter
Aug 20
Full

Hourly Weather History & Observations

Time (CDT) Temp. Dew Point Humidity Pressure Visibility Wind Dir Wind Speed Gust Speed Precip Events Conditions
12:15 AM 67.1 °F 59.0 °F 75% 29.97 in 10.0 mi North 5.8 mph - N/A   Overcast
12:35 AM 66.9 °F 58.3 °F 74% 29.98 in 10.0 mi NNW 5.8 mph - N/A   Overcast
12:55 AM 66.4 °F 56.3 °F 70% 29.98 in 10.0 mi NNW 10.4 mph - N/A   Mostly Cloudy
1:15 AM 65.3 °F 53.8 °F 66% 29.98 in 10.0 mi NNW 8.1 mph - N/A   Mostly Cloudy
1:35 AM 64.8 °F 52.9 °F 65% 29.99 in 10.0 mi NNW 9.2 mph - N/A   Mostly Cloudy
1:55 AM 64.2 °F 53.4 °F 68% 29.99 in 10.0 mi North 6.9 mph - N/A   Overcast
2:15 AM 63.3 °F 53.1 °F 69% 29.99 in 10.0 mi North 6.9 mph - N/A   Mostly Cloudy
2:35 AM 62.4 °F 52.7 °F 70% 29.99 in 10.0 mi NNW 5.8 mph - N/A   Mostly Cloudy
2:55 AM 61.7 °F 52.2 °F 71% 30.00 in 10.0 mi NNW 4.6 mph - N/A   Scattered Clouds
3:15 AM 60.4 °F 52.0 °F 74% 30.00 in 10.0 mi Calm Calm - N/A   Clear
3:35 AM 59.7 °F 52.2 °F 76% 30.00 in 10.0 mi Calm Calm - N/A   Clear
3:55 AM 59.0 °F 52.0 °F 78% 30.00 in 10.0 mi Calm Calm - N/A   Clear
4:15 AM 57.4 °F 52.0 °F 82% 30.00 in 10.0 mi Calm Calm - N/A   Clear
4:35 AM 57.0 °F 51.8 °F 83% 30.01 in 10.0 mi Calm Calm - N/A   Clear
4:55 AM 56.5 °F 51.8 °F 84% 30.02 in 10.0 mi Calm Calm - N/A   Clear
5:15 AM 55.4 °F 52.7 °F 91% 30.03 in 10.0 mi Calm Calm - N/A   Clear
5:35 AM 54.1 °F 54.1 °F 100% 30.03 in 10.0 mi Calm Calm - N/A   Clear
5:55 AM 53.6 °F 53.6 °F 100% 30.04 in 10.0 mi Calm Calm - N/A   Clear
6:15 AM 53.1 °F 53.1 °F 100% 30.04 in 10.0 mi Calm Calm - N/A   Clear
6:35 AM 54.0 °F 54.0 °F 100% 30.05 in 10.0 mi Calm Calm - N/A   Clear
6:55 AM 55.4 °F 55.4 °F 100% 30.04 in 10.0 mi Calm Calm - N/A   Clear
7:15 AM 57.7 °F 55.6 °F 92% 30.05 in 10.0 mi Calm Calm - N/A   Clear
7:35 AM 60.1 °F 53.6 °F 79% 30.05 in 10.0 mi Calm Calm - N/A   Clear
7:55 AM 62.2 °F 52.5 °F 70% 30.05 in 10.0 mi Calm Calm - N/A   Clear
8:15 AM 64.4 °F 50.5 °F 61% 30.06 in 10.0 mi Calm Calm - N/A   Clear
8:35 AM 65.7 °F 47.5 °F 52% 30.06 in 10.0 mi NW 4.6 mph - N/A   Clear
8:55 AM 66.4 °F 46.9 °F 50% 30.07 in 10.0 mi Calm Calm - N/A   Clear
9:15 AM 67.3 °F 46.2 °F 47% 30.07 in 10.0 mi NW 4.6 mph - N/A   Clear
9:35 AM 68.0 °F 47.1 °F 47% 30.08 in 10.0 mi North 5.8 mph - N/A   Clear
9:55 AM 68.2 °F 47.7 °F 48% 30.08 in 10.0 mi North 3.5 mph - N/A   Clear
10:15 AM 69.1 °F 47.7 °F 46% 30.08 in 10.0 mi NW 4.6 mph - N/A   Clear
10:35 AM 69.8 °F 48.6 °F 47% 30.08 in 10.0 mi Calm Calm - N/A   Clear
10:55 AM 70.2 °F 47.3 °F 44% 30.08 in 10.0 mi NNE 3.5 mph - N/A   Clear
11:15 AM 70.7 °F 47.3 °F 43% 30.07 in 10.0 mi North 5.8 mph - N/A   Clear
11:35 AM 71.6 °F 49.1 °F 45% 30.07 in 10.0 mi Calm Calm - N/A   Clear
11:55 AM 72.1 °F 49.1 °F 44% 30.07 in 10.0 mi NW 4.6 mph - N/A   Clear
12:15 PM 72.3 °F 48.6 °F 43% 30.07 in 10.0 mi NW 5.8 mph - N/A   Clear
12:35 PM 72.7 °F 50.4 °F 45% 30.07 in 10.0 mi WNW 3.5 mph - N/A   Clear
12:55 PM 73.0 °F 48.7 °F 42% 30.06 in 10.0 mi WNW 3.5 mph - N/A   Clear
1:15 PM 73.4 °F 49.8 °F 43% 30.06 in 10.0 mi North 4.6 mph - N/A   Clear
1:35 PM 73.9 °F 47.8 °F 40% 30.05 in 10.0 mi Calm Calm - N/A   Clear
1:55 PM 74.5 °F 49.1 °F 41% 30.04 in 10.0 mi WSW 10.4 mph 18.4 mph N/A   Clear
2:15 PM 74.7 °F 49.5 °F 41% 30.04 in 10.0 mi SW 5.8 mph - N/A   Clear
2:35 PM 75.0 °F 49.8 °F 41% 30.04 in 10.0 mi WSW 3.5 mph - N/A   Clear
2:55 PM 75.4 °F 49.3 °F 40% 30.04 in 10.0 mi West 5.8 mph - N/A   Clear
3:15 PM 75.6 °F 49.3 °F 39% 30.04 in 10.0 mi West 4.6 mph - N/A   Clear
3:35 PM 75.6 °F 49.6 °F 40% 30.04 in 10.0 mi Calm Calm - N/A   Clear
3:55 PM 76.3 °F 51.8 °F 42% 30.03 in 10.0 mi Calm Calm - N/A   Clear
4:15 PM 76.6 °F 51.1 °F 41% 30.04 in 10.0 mi Calm Calm - N/A   Clear
4:35 PM 75.7 °F 48.9 °F 39% 30.04 in 10.0 mi WNW 5.8 mph - N/A   Clear
4:55 PM 75.7 °F 49.5 °F 40% 30.04 in 10.0 mi West 4.6 mph - N/A   Clear
5:15 PM 75.7 °F 51.6 °F 43% 30.04 in 10.0 mi Calm Calm - N/A   Clear
5:35 PM 75.6 °F 52.5 °F 45% 30.04 in 10.0 mi Calm Calm - N/A   Clear
5:55 PM 75.2 °F 52.2 °F 44% 30.03 in 10.0 mi West 3.5 mph - N/A   Clear
6:15 PM 74.7 °F 53.1 °F 47% 30.04 in 10.0 mi WNW 4.6 mph - N/A   Clear
6:35 PM 73.9 °F 52.7 °F 47% 30.05 in 10.0 mi WNW 3.5 mph - N/A   Clear
6:55 PM 72.5 °F 52.7 °F 50% 30.05 in 10.0 mi NNW 3.5 mph - N/A   Clear
7:15 PM 70.7 °F 53.8 °F 55% 30.06 in 10.0 mi Calm Calm - N/A   Clear
7:35 PM 68.9 °F 54.7 °F 60% 30.07 in 10.0 mi Calm Calm - N/A   Clear
7:55 PM 68.0 °F 54.0 °F 61% 30.07 in 10.0 mi Calm Calm - N/A   Clear
8:15 PM 66.6 °F 54.9 °F 66% 30.07 in 10.0 mi Calm Calm - N/A   Clear
8:35 PM 65.8 °F 55.6 °F 69% 30.08 in 10.0 mi Calm Calm - N/A   Clear
8:55 PM 64.2 °F 56.5 °F 76% 30.08 in 10.0 mi Calm Calm - N/A   Clear
9:15 PM 61.7 °F 57.0 °F 85% 30.09 in 10.0 mi Calm Calm - N/A   Clear
9:35 PM 61.3 °F 56.8 °F 85% 30.09 in 10.0 mi Calm Calm - N/A   Clear
9:55 PM 61.3 °F 56.3 °F 83% 30.10 in 10.0 mi Calm Calm - N/A   Clear
10:15 PM 61.3 °F 55.9 °F 82% 30.10 in 10.0 mi Calm Calm - N/A   Clear
10:35 PM 60.1 °F 59.0 °F 96% 30.11 in 10.0 mi Calm Calm - N/A   Clear
10:55 PM 59.5 °F 59.4 °F 99% 30.11 in 10.0 mi Calm Calm - N/A   Clear
11:15 PM 59.2 °F 59.2 °F 100% 30.11 in 10.0 mi Calm Calm - N/A   Clear
11:35 PM 59.2 °F 59.0 °F 99% 30.11 in 10.0 mi Calm Calm - N/A   Clear
11:55 PM 58.8 °F 58.8 °F 100% 30.11 in 10.0 mi Calm Calm - N/A   Clear